351P/Wiegert-PanSTARRS (2025)

Japanese version
Home page
Updated on October 1, 2025

---------------------------------------------------------------------

* Profile

* Pictures

* Orbital Elements

Epoch 2025 May 5.0 TT = JDT 2460800.5
T 2025 Mar. 26.16237 TT                                 Pike
q   3.1319358            (2000.0)            P               Q
n   0.10532271     Peri.  352.56404     +0.10674673     +0.97072406
a   4.4407334      Node   283.38411     -0.90047536     +0.00262045
e   0.2947256      Incl.   12.77844     -0.42160320     +0.24018312
P   9.36
From 192 observations 1998 Oct. 18-2025 Aug. 2, mean residual 0".5.

* Magnitudes Graph

        m1 = 3.0 + 5 log d + 25 log r

---------------------------------------------------------------------

The orbital elements are published on M.P.E.C. 2025-P113.
The magnitudes graphs are made with Comet for Windows.

---------------------------------------------------------------------

Copyright(C) Seiichi Yoshida (comet@aerith.net). All rights reserved.